EDT,Max TemperatureF,Mean TemperatureF,Min TemperatureF,Max Dew PointF,MeanDew PointF,Min DewpointF,Max Humidity, Mean Humidity, Min Humidity, Max Sea Level PressureIn, Mean Sea Level PressureIn, Min Sea Level PressureIn, Max VisibilityMiles, Mean VisibilityMiles, Min VisibilityMiles, Max Wind SpeedMPH, Mean Wind SpeedMPH, Max Gust SpeedMPH,PrecipitationIn, CloudCover, Events, WindDirDegrees
2012-10-1,64,49,34,50,43,32,90,77,59,29.95,29.91,29.86,10,10,10,8,1,,0.00,0,,234
2012-10-2,68,55,42,54,48,39,90,78,59,29.96,29.91,29.86,10,10,5,10,2,16,0.00,1,,23
2012-10-3,70,55,40,59,49,37,90,78,46,30.00,29.97,29.95,10,7,0,7,1,,0.00,6,Fog-Rain,69
2012-10-4,75,67,57,60,55,39,91,74,42,30.00,29.94,29.85,10,8,0,21,5,30,0.00,5,Fog-Rain,218
2012-10-5,56,52,47,40,35,30,62,53,43,30.00,29.96,29.91,10,10,10,21,14,31,0.00,5,,272
2012-10-6,51,46,42,38,34,27,83,63,45,30.12,30.00,29.89,10,10,3,18,14,32,0.00,7,Rain,314
2012-10-7,50,44,39,39,34,24,89,73,38,30.12,30.09,30.05,10,10,3,9,3,16,0.00,7,Rain,160
2012-10-8,59,49,39,37,30,22,66,44,33,30.05,30.00,29.90,10,10,10,21,10,33,0.00,4,,192
2012-10-9,59,52,45,48,43,36,83,64,50,29.89,29.80,29.72,10,10,7,21,14,33,0.00,8,Rain,220
2012-10-10,49,46,44,39,30,21,71,55,36,30.08,29.91,29.77,10,10,10,18,13,30,0.00,7,,299
2012-10-11,54,50,45,42,34,26,75,55,40,30.21,30.01,29.89,10,10,10,21,11,34,0.00,6,Rain,275
2012-10-12,51,44,38,35,30,26,84,59,38,30.45,30.35,30.22,10,10,10,14,7,22,0.00,4,,333
2012-10-13,58,47,36,56,41,26,91,80,49,30.30,29.99,29.76,10,7,1,17,6,22,0.00,6,Rain,160
2012-10-14,62,56,49,59,53,44,91,88,80,29.77,29.51,29.32,10,5,1,24,6,34,0.00,8,Rain,358
2012-10-15,49,42,36,43,39,33,88,74,61,29.94,29.79,29.55,10,10,7,20,13,33,0.00,7,Rain,326
2012-10-16,61,48,34,44,39,31,92,71,49,29.93,29.79,29.59,10,10,7,16,4,21,0.00,2,,146
2012-10-17,73,64,56,56,50,42,83,63,39,29.58,29.47,29.37,10,10,10,23,11,32,0.00,3,Rain,163
2012-10-18,62,54,46,55,49,42,88,82,71,29.53,29.35,29.23,10,9,3,22,12,31,0.00,8,Rain,172
2012-10-19,52,47,42,46,42,40,90,81,71,29.58,29.55,29.52,10,10,7,9,6,,0.00,7,Rain,118
2012-10-20,57,49,41,48,43,39,91,83,64,29.86,29.71,29.57,10,8,0,9,1,,0.00,5,Fog,331
2012-10-21,59,48,36,48,42,34,92,81,56,30.03,29.98,29.87,10,7,0,12,1,16,0.00,0,Fog,220
2012-10-22,67,56,44,54,48,41,88,74,55,30.01,29.98,29.93,10,10,7,7,1,,0.00,3,,263
2012-10-23,64,61,58,57,56,55,88,81,74,29.98,29.94,29.91,10,9,4,12,4,18,0.00,8,Rain,115
2012-10-24,74,67,60,62,59,55,87,78,63,29.94,29.90,29.83,10,9,5,13,7,18,0.00,7,,151
2012-10-25,76,63,49,63,59,45,88,67,56,29.84,29.71,29.60,10,10,4,26,14,41,0.00,5,Rain,194
2012-10-26,48,46,43,43,32,28,81,59,50,30.28,30.17,29.85,10,10,7,23,12,32,0.00,7,,303
2012-10-27,48,43,38,36,30,24,84,61,48,30.30,30.28,30.26,10,10,10,13,4,20,0.00,7,,341
2012-10-28,50,44,39,32,28,25,69,51,42,30.34,30.31,30.28,10,10,10,13,4,21,0.00,5,,33
2012-10-29,48,46,43,33,29,24,66,52,40,30.29,30.23,30.06,10,10,10,18,9,31,0.00,2,,4
2012-10-30,45,43,41,38,33,22,86,69,40,30.04,29.83,29.72,10,9,4,23,16,43,0.00,7,Rain,356
2012-10-31,44,42,40,39,36,34,84,80,71,29.75,29.71,29.68,10,8,3,18,13,30,0.00,8,Rain,345